Regional Weather Roundup
Issued by NWS Sioux Falls, SD

Home | Current Version | Previous Version | Text Only | Print | Product List | Glossary On
Versions: 1 2 3 4 5 6 7 8 9 10 11 12 13 14 15 16 17 18 19 20 21 22 23 24 25 26 27 28 29 30 31 32 33 34 35 36 37 38 39 40 41 42 43 44 45 46 47 48 49 50
000
ASUS43 KFSD 222010
RWRFSD

WEATHER ROUNDUP FOR SE SOUTH DAKOTA/SW MINNESOTA/NW IOWA
NATIONAL WEATHER SERVICE SIOUX FALLS SD
300 PM CDT TUE APR 22 2014

NOTE: "FAIR" INDICATES FEW OR NO CLOUDS BELOW 12,000 FEET WITH NO
SIGNIFICANT WEATHER AND OR OBSTRUCTIONS TO VISIBILITY.


SDZ038>040-050-052>070-222100-
SOUTHEAST SOUTH DAKOTA

CITY           SKY/WX    TMP DP  RH WIND       PRES   REMARKS
CHAMBERLAIN      N/A     71  31  22 S23G35    29.90F
HURON          CLOUDY    65  29  25 SE18      29.95F
MADISON        FAIR      63  28  27 SE10G18   30.03F
MITCHELL       CLOUDY    65  29  25 SE24      29.97F
SIOUX FALLS    PTSUNNY   65  30  27 VRB6G20   30.03F
YANKTON        MOSUNNY   64  28  25 SE16      30.02F
$$

MNZ071-072-080-081-089-090-097-098-222100-
SOUTHWEST MINNESOTA

CITY           SKY/WX    TMP DP  RH WIND       PRES   REMARKS
FAIRMONT       SUNNY     61  30  31 NW7       30.09F
JACKSON        SUNNY     61  28  29 NE8       30.07F
LUVERNE        SUNNY     64  28  25 SE6       30.06F
MARSHALL       SUNNY     63  32  31 SE9       30.06F
MONTEVIDEO     PTSUNNY   64  30  27 CALM      30.06F
PIPESTONE      SUNNY     63  28  27 S5        30.05F
REDWOOD FALLS  MOSUNNY   60  33  36 VRB5      30.07F
TRACY          SUNNY     63  32  30 CALM      30.07F
WINDOM         SUNNY     61  28  29 N8        30.07F
WORTHINGTON    SUNNY     61  28  29 S7        30.08F
$$

IAZ001>003-012>014-020>022-031-032-NEZ013-014-SDZ071-222100-
NORTHWEST IOWA

CITY           SKY/WX    TMP DP  RH WIND       PRES   REMARKS
CHEROKEE       SUNNY     67  33  28 SE3       30.07F
DENISON        SUNNY     63  32  31 VRB7      30.07F
ESTHERVILLE    SUNNY     61  33  35 NE5       30.07F
LE MARS        SUNNY     66  30  26 S8        30.06F HAZE
ORANGE CITY    SUNNY     64  27  24 S10       30.06F
SHELDON        SUNNY     64  32  29 S10       30.05F
SIOUX CITY     MOSUNNY   67  35  30 S10G21    30.06F
SPENCER        SUNNY     63  32  31 E5        30.07F
STORM LAKE     SUNNY     61  32  33 E6        30.09F
$$

ABBREVIATIONS USED IN REMARKS
   TC - TEMPERATURE IN CELSIUS
  WCI - WIND CHILL INDEX
   HX - HEAT INDEX
  VSB - VISIBILITY




USA.gov is the U.S. government's official web portal to all federal, state and local government web resources and services.